Location: ?ejeti?ky
(50.4060°N, 14.9016°E)
Time: 09:42:37
(UTC+00:00)

SL-16 R/B - Pass Details

Date: 07 June 2020
Orbit: 842 x 846 km, 71.0° (Epoch: 11 July)

Event Time Altitude Azimuth Distance (km) Brightness Sun altitude
Exits shadow 02:04:54 - 231° (SW) 2,715 4.2 -6.1°
Reaches altitude 10° 02:05:36 10° 233° (SW) 2,462 4.0 -6.1°
Maximum altitude 02:11:04 48° 307° (NW) 1,092 2.8 -5.5°
Drops below altitude 10° 02:16:34 10° 22° (NNE) 2,478 6.0 -4.9°
Sets 02:19:08 0° 28° (NNE) 3,418 7.2 -4.6°
